owner,sensor,date,latitude,longitude,vertical_datum,wind_speed,wind_to_direction,wind_speed_of_gust,qcFlag 
FIT,ioos:station:wmo:SIPF1:1,2014-05-01T00:00:00Z,27.8620,-80.4450,1.0,3.7,185.0,99.0,'11111222,11111222,11144222' 
FIT,ioos:station:wmo:SIPF1:1,2014-05-01T00:15:00Z,27.8620,-80.4450,1.0,1.9,215.0,99.0,'11111222,11111222,11144222' 
FIT,ioos:station:wmo:SIPF1:1,2014-05-01T00:30:00Z,27.8620,-80.4450,1.0,1.9,213.0,99.0,'11111222,11111222,11144222' 
FIT,ioos:station:wmo:SIPF1:1,2014-05-01T00:45:00Z,27.8620,-80.4450,1.0,3.1,176.0,99.0,'11111222,11111222,11144222' 
FIT,ioos:station:wmo:SIPF1:1,2014-05-01T01:00:00Z,27.8620,-80.4450,1.0,2.8,226.0,99.0,'11111222,11111222,11144222' 
FIT,ioos:station:wmo:SIPF1:1,2014-05-01T01:15:00Z,27.8620,-80.4450,1.0,7.1,249.0,99.0,'11111222,11111222,11144222' 
FIT,ioos:station:wmo:SIPF1:1,2014-05-01T01:30:00Z,27.8620,-80.4450,1.0,3.1,150.0,99.0,'11111222,11111222,11144222' 
FIT,ioos:station:wmo:SIPF1:1,2014-05-01T01:45:00Z,27.8620,-80.4450,1.0,2.0,205.0,99.0,'11111222,11111222,11144222' 
FIT,ioos:station:wmo:SIPF1:1,2014-05-01T02:00:00Z,27.8620,-80.4450,1.0,1.7,276.0,99.0,'11111222,11111222,11144222' 
FIT,ioos:station:wmo:SIPF1:1,2014-05-01T02:15:00Z,27.8620,-80.4450,1.0,3.9,311.0,99.0,'11111222,11111222,11144222' 
FIT,ioos:station:wmo:SIPF1:1,2014-05-01T02:30:00Z,27.8620,-80.4450,1.0,4.2,340.0,99.0,'11111222,11111222,11144222' 
FIT,ioos:station:wmo:SIPF1:1,2014-05-01T02:45:00Z,27.8620,-80.4450,1.0,3.5,341.0,99.0,'11111222,11111222,11144222' 
FIT,ioos:station:wmo:SIPF1:1,2014-05-01T03:00:00Z,27.8620,-80.4450,1.0,2.3,2.0,99.0,'11111222,11111222,11144222' 
FIT,ioos:station:wmo:SIPF1:1,2014-05-01T03:15:00Z,27.8620,-80.4450,1.0,1.1,358.0,99.0,'11111222,11111222,11144222' 
FIT,ioos:station:wmo:SIPF1:1,2014-05-01T03:30:00Z,27.8620,-80.4450,1.0,1.5,334.0,99.0,'11111222,11111222,11144222' 
FIT,ioos:station:wmo:SIPF1:1,2014-05-01T03:45:00Z,27.8620,-80.4450,1.0,0.5,46.0,99.0,'11111222,11111222,11144222' 
FIT,ioos:station:wmo:SIPF1:1,2014-05-01T04:00:00Z,27.8620,-80.4450,1.0,1.3,102.0,99.0,'11111222,11111222,11144222' 
FIT,ioos:station:wmo:SIPF1:1,2014-05-01T04:15:00Z,27.8620,-80.4450,1.0,1.7,115.0,99.0,'11111222,11111222,11144222' 
FIT,ioos:station:wmo:SIPF1:1,2014-05-01T04:30:00Z,27.8620,-80.4450,1.0,3.4,117.0,99.0,'11111222,11111222,11144222' 
FIT,ioos:station:wmo:SIPF1:1,2014-05-01T04:45:00Z,27.8620,-80.4450,1.0,3.0,121.0,99.0,'11111222,11111222,11144222' 
FIT,ioos:station:wmo:SIPF1:1,2014-05-01T05:00:00Z,27.8620,-80.4450,1.0,3.0,129.0,99.0,'11111222,11111222,11144222' 
FIT,ioos:station:wmo:SIPF1:1,2014-05-01T05:15:00Z,27.8620,-80.4450,1.0,3.5,142.0,99.0,'11111222,11111222,11144222' 
FIT,ioos:station:wmo:SIPF1:1,2014-05-01T05:30:00Z,27.8620,-80.4450,1.0,3.7,153.0,99.0,'11111222,11111222,11144222' 
FIT,ioos:station:wmo:SIPF1:1,2014-05-01T05:45:00Z,27.8620,-80.4450,1.0,4.7,158.0,99.0,'11111222,11111222,11144222' 
FIT,ioos:station:wmo:SIPF1:1,2014-05-01T06:00:00Z,27.8620,-80.4450,1.0,4.9,163.0,99.0,'11111222,11111222,11144222' 
FIT,ioos:station:wmo:SIPF1:1,2014-05-01T06:15:00Z,27.8620,-80.4450,1.0,5.2,172.0,99.0,'11111222,11111222,11144222' 
FIT,ioos:station:wmo:SIPF1:1,2014-05-01T06:30:00Z,27.8620,-80.4450,1.0,5.8,171.0,99.0,'11111222,11111222,11144222' 
FIT,ioos:station:wmo:SIPF1:1,2014-05-01T06:45:00Z,27.8620,-80.4450,1.0,5.9,173.0,99.0,'11111222,11111222,11144222' 
FIT,ioos:station:wmo:SIPF1:1,2014-05-01T07:00:00Z,27.8620,-80.4450,1.0,5.3,173.0,99.0,'11111222,11111222,11144222' 
FIT,ioos:station:wmo:SIPF1:1,2014-05-01T07:15:00Z,27.8620,-80.4450,1.0,4.7,176.0,99.0,'11111222,11111222,11144222' 
FIT,ioos:station:wmo:SIPF1:1,2014-05-01T07:30:00Z,27.8620,-80.4450,1.0,4.6,181.0,99.0,'11111222,11111222,11144222' 
FIT,ioos:station:wmo:SIPF1:1,2014-05-01T07:45:00Z,27.8620,-80.4450,1.0,4.6,188.0,99.0,'11111222,11111222,11144222' 
FIT,ioos:station:wmo:SIPF1:1,2014-05-01T08:00:00Z,27.8620,-80.4450,1.0,4.7,186.0,99.0,'11111222,11111222,11144222' 
FIT,ioos:station:wmo:SIPF1:1,2014-05-01T08:15:00Z,27.8620,-80.4450,1.0,4.7,187.0,99.0,'11111222,11111222,11144222' 
FIT,ioos:station:wmo:SIPF1:1,2014-05-01T08:30:00Z,27.8620,-80.4450,1.0,4.6,187.0,99.0,'11111222,11111222,11144222' 
FIT,ioos:station:wmo:SIPF1:1,2014-05-01T08:45:00Z,27.8620,-80.4450,1.0,5.5,188.0,99.0,'11111222,11111222,11144222' 
FIT,ioos:station:wmo:SIPF1:1,2014-05-01T09:00:00Z,27.8620,-80.4450,1.0,6.0,182.0,99.0,'11111222,11111222,11144222' 
FIT,ioos:station:wmo:SIPF1:1,2014-05-01T09:15:00Z,27.8620,-80.4450,1.0,5.7,186.0,99.0,'11111222,11111222,11144222' 
FIT,ioos:station:wmo:SIPF1:1,2014-05-01T09:30:00Z,27.8620,-80.4450,1.0,4.0,191.0,99.0,'11111222,11111222,11144222' 
FIT,ioos:station:wmo:SIPF1:1,2014-05-01T09:45:00Z,27.8620,-80.4450,1.0,4.4,190.0,99.0,'11111222,11111222,11144222' 
FIT,ioos:station:wmo:SIPF1:1,2014-05-01T10:00:00Z,27.8620,-80.4450,1.0,4.9,186.0,99.0,'11111222,11111222,11144222' 
FIT,ioos:station:wmo:SIPF1:1,2014-05-01T10:15:00Z,27.8620,-80.4450,1.0,5.0,186.0,99.0,'11111222,11111222,11144222' 
FIT,ioos:station:wmo:SIPF1:1,2014-05-01T10:30:00Z,27.8620,-80.4450,1.0,5.4,182.0,99.0,'11111222,11111222,11144222' 
FIT,ioos:station:wmo:SIPF1:1,2014-05-01T10:45:00Z,27.8620,-80.4450,1.0,5.0,183.0,99.0,'11111222,11111222,11144222' 
FIT,ioos:station:wmo:SIPF1:1,2014-05-01T11:00:00Z,27.8620,-80.4450,1.0,4.8,189.0,99.0,'11111222,11111222,11144222' 
FIT,ioos:station:wmo:SIPF1:1,2014-05-01T11:15:00Z,27.8620,-80.4450,1.0,5.0,185.0,99.0,'11111222,11111222,11144222' 
FIT,ioos:station:wmo:SIPF1:1,2014-05-01T11:30:00Z,27.8620,-80.4450,1.0,4.8,189.0,99.0,'11111222,11111222,11144222' 
FIT,ioos:station:wmo:SIPF1:1,2014-05-01T11:45:00Z,27.8620,-80.4450,1.0,5.0,186.0,99.0,'11111222,11111222,11144222' 
FIT,ioos:station:wmo:SIPF1:1,2014-05-01T12:00:00Z,27.8620,-80.4450,1.0,5.1,187.0,99.0,'11111222,11111222,11144222' 
FIT,ioos:station:wmo:SIPF1:1,2014-05-01T12:15:00Z,27.8620,-80.4450,1.0,5.0,188.0,99.0,'11111222,11111222,11144222' 
FIT,ioos:station:wmo:SIPF1:1,2014-05-01T12:30:00Z,27.8620,-80.4450,1.0,5.1,182.0,99.0,'11111222,11111222,11144222' 
FIT,ioos:station:wmo:SIPF1:1,2014-05-01T12:45:00Z,27.8620,-80.4450,1.0,5.5,181.0,99.0,'11111222,11111222,11144222' 
FIT,ioos:station:wmo:SIPF1:1,2014-05-01T13:00:00Z,27.8620,-80.4450,1.0,6.1,179.0,99.0,'11111222,11111222,11144222' 
FIT,ioos:station:wmo:SIPF1:1,2014-05-01T13:15:00Z,27.8620,-80.4450,1.0,6.1,186.0,99.0,'11111222,11111222,11144222' 
FIT,ioos:station:wmo:SIPF1:1,2014-05-01T13:30:00Z,27.8620,-80.4450,1.0,6.3,185.0,99.0,'11111222,11111222,11144222' 
FIT,ioos:station:wmo:SIPF1:1,2014-05-01T13:45:00Z,27.8620,-80.4450,1.0,7.0,182.0,99.0,'11111222,11111222,11144222' 
FIT,ioos:station:wmo:SIPF1:1,2014-05-01T14:00:00Z,27.8620,-80.4450,1.0,6.4,179.0,99.0,'11111222,11111222,11144222' 
FIT,ioos:station:wmo:SIPF1:1,2014-05-01T14:15:00Z,27.8620,-80.4450,1.0,6.6,188.0,99.0,'11111222,11111222,11144222' 
FIT,ioos:station:wmo:SIPF1:1,2014-05-01T14:30:00Z,27.8620,-80.4450,1.0,6.4,184.0,99.0,'11111222,11111222,11144222' 
FIT,ioos:station:wmo:SIPF1:1,2014-05-01T14:45:00Z,27.8620,-80.4450,1.0,5.9,199.0,99.0,'11111222,11111222,11144222' 
FIT,ioos:station:wmo:SIPF1:1,2014-05-01T15:00:00Z,27.8620,-80.4450,1.0,4.9,180.0,99.0,'11111222,11111222,11144222' 
FIT,ioos:station:wmo:SIPF1:1,2014-05-01T15:15:00Z,27.8620,-80.4450,1.0,4.8,152.0,99.0,'11111222,11111222,11144222' 
FIT,ioos:station:wmo:SIPF1:1,2014-05-01T15:30:00Z,27.8620,-80.4450,1.0,5.7,161.0,99.0,'11111222,11111222,11144222' 
FIT,ioos:station:wmo:SIPF1:1,2014-05-01T15:45:00Z,27.8620,-80.4450,1.0,5.3,156.0,99.0,'11111222,11111222,11144222' 
FIT,ioos:station:wmo:SIPF1:1,2014-05-01T16:00:00Z,27.8620,-80.4450,1.0,5.9,147.0,99.0,'11111222,11111222,11144222' 
FIT,ioos:station:wmo:SIPF1:1,2014-05-01T16:15:00Z,27.8620,-80.4450,1.0,5.9,154.0,99.0,'11111222,11111222,11144222' 
FIT,ioos:station:wmo:SIPF1:1,2014-05-01T16:30:00Z,27.8620,-80.4450,1.0,6.1,149.0,99.0,'11111222,11111222,11144222' 
FIT,ioos:station:wmo:SIPF1:1,2014-05-01T16:45:00Z,27.8620,-80.4450,1.0,6.3,152.0,99.0,'11111222,11111222,11144222' 
FIT,ioos:station:wmo:SIPF1:1,2014-05-01T17:00:00Z,27.8620,-80.4450,1.0,7.5,148.0,99.0,'11111222,11111222,11144222' 
FIT,ioos:station:wmo:SIPF1:1,2014-05-01T17:15:00Z,27.8620,-80.4450,1.0,7.3,144.0,99.0,'11111222,11111222,11144222' 
FIT,ioos:station:wmo:SIPF1:1,2014-05-01T17:30:00Z,27.8620,-80.4450,1.0,7.5,144.0,99.0,'11111222,11111222,11144222' 
FIT,ioos:station:wmo:SIPF1:1,2014-05-01T17:45:00Z,27.8620,-80.4450,1.0,7.5,143.0,99.0,'11111222,11111222,11144222' 
FIT,ioos:station:wmo:SIPF1:1,2014-05-01T18:00:00Z,27.8620,-80.4450,1.0,7.9,148.0,99.0,'11111222,11111222,11144222' 
FIT,ioos:station:wmo:SIPF1:1,2014-05-01T18:15:00Z,27.8620,-80.4450,1.0,8.1,149.0,99.0,'11111222,11111222,11144222' 
FIT,ioos:station:wmo:SIPF1:1,2014-05-01T18:30:00Z,27.8620,-80.4450,1.0,8.2,149.0,99.0,'11111222,11111222,11144222' 
FIT,ioos:station:wmo:SIPF1:1,2014-05-01T18:45:00Z,27.8620,-80.4450,1.0,8.0,147.0,99.0,'11111222,11111222,11144222' 
FIT,ioos:station:wmo:SIPF1:1,2014-05-01T19:00:00Z,27.8620,-80.4450,1.0,8.2,146.0,99.0,'11111222,11111222,11144222' 
FIT,ioos:station:wmo:SIPF1:1,2014-05-01T19:15:00Z,27.8620,-80.4450,1.0,8.0,144.0,99.0,'11111222,11111222,11144222' 
FIT,ioos:station:wmo:SIPF1:1,2014-05-01T19:30:00Z,27.8620,-80.4450,1.0,8.2,145.0,99.0,'11111222,11111222,11144222' 
FIT,ioos:station:wmo:SIPF1:1,2014-05-01T19:45:00Z,27.8620,-80.4450,1.0,8.5,145.0,99.0,'11111222,11111222,11144222' 
FIT,ioos:station:wmo:SIPF1:1,2014-05-01T20:00:00Z,27.8620,-80.4450,1.0,8.5,144.0,99.0,'11111222,11111222,11144222' 
FIT,ioos:station:wmo:SIPF1:1,2014-05-01T20:15:00Z,27.8620,-80.4450,1.0,10.6,150.0,99.0,'11111222,11111222,11144222' 
FIT,ioos:station:wmo:SIPF1:1,2014-05-01T20:30:00Z,27.8620,-80.4450,1.0,9.8,150.0,99.0,'11111222,11111222,11144222' 
FIT,ioos:station:wmo:SIPF1:1,2014-05-01T20:45:00Z,27.8620,-80.4450,1.0,8.9,150.0,99.0,'11111222,11111222,11144222' 
FIT,ioos:station:wmo:SIPF1:1,2014-05-01T21:00:00Z,27.8620,-80.4450,1.0,8.5,147.0,99.0,'11111222,11111222,11144222' 
FIT,ioos:station:wmo:SIPF1:1,2014-05-01T21:15:00Z,27.8620,-80.4450,1.0,7.7,142.0,99.0,'11111222,11111222,11144222' 
FIT,ioos:station:wmo:SIPF1:1,2014-05-01T21:30:00Z,27.8620,-80.4450,1.0,8.3,144.0,99.0,'11111222,11111222,11144222' 
FIT,ioos:station:wmo:SIPF1:1,2014-05-01T21:45:00Z,27.8620,-80.4450,1.0,8.2,150.0,99.0,'11111222,11111222,11144222' 
FIT,ioos:station:wmo:SIPF1:1,2014-05-01T22:00:00Z,27.8620,-80.4450,1.0,7.4,153.0,99.0,'11111222,11111222,11144222' 
FIT,ioos:station:wmo:SIPF1:1,2014-05-01T22:15:00Z,27.8620,-80.4450,1.0,7.1,153.0,99.0,'11111222,11111222,11144222' 
FIT,ioos:station:wmo:SIPF1:1,2014-05-01T22:30:00Z,27.8620,-80.4450,1.0,8.2,152.0,99.0,'11111222,11111222,11144222' 
FIT,ioos:station:wmo:SIPF1:1,2014-05-01T22:45:00Z,27.8620,-80.4450,1.0,8.7,163.0,99.0,'11111222,11111222,11144222' 
FIT,ioos:station:wmo:SIPF1:1,2014-05-01T23:00:00Z,27.8620,-80.4450,1.0,7.6,177.0,99.0,'11111222,11111222,11144222' 
FIT,ioos:station:wmo:SIPF1:1,2014-05-01T23:15:00Z,27.8620,-80.4450,1.0,7.2,200.0,99.0,'11111222,11111222,11144222' 
FIT,ioos:station:wmo:SIPF1:1,2014-05-01T23:30:00Z,27.8620,-80.4450,1.0,7.1,237.0,99.0,'11111222,11111222,11144222' 
FIT,ioos:station:wmo:SIPF1:1,2014-05-01T23:45:00Z,27.8620,-80.4450,1.0,6.2,280.0,99.0,'11111222,11111222,11144222' 
FIT,ioos:station:wmo:SIPF1:1,2014-05-02T00:00:00Z,27.8620,-80.4450,1.0,5.3,299.0,99.0,'11111222,11111222,11144222' 
FIT,ioos:station:wmo:SIPF1:1,2014-05-02T00:15:00Z,27.8620,-80.4450,1.0,4.1,287.0,99.0,'11111222,11111222,11144222' 
FIT,ioos:station:wmo:SIPF1:1,2014-05-02T00:30:00Z,27.8620,-80.4450,1.0,5.6,306.0,99.0,'11111222,11111222,11144222' 
FIT,ioos:station:wmo:SIPF1:1,2014-05-02T00:45:00Z,27.8620,-80.4450,1.0,4.6,322.0,99.0,'11111222,11111222,11144222' 
FIT,ioos:station:wmo:SIPF1:1,2014-05-02T01:00:00Z,27.8620,-80.4450,1.0,4.2,321.0,99.0,'11111222,11111222,11144222' 
FIT,ioos:station:wmo:SIPF1:1,2014-05-02T01:15:00Z,27.8620,-80.4450,1.0,3.8,319.0,99.0,'11111222,11111222,11144222' 
FIT,ioos:station:wmo:SIPF1:1,2014-05-02T01:30:00Z,27.8620,-80.4450,1.0,2.6,312.0,99.0,'11111222,11111222,11144222' 
FIT,ioos:station:wmo:SIPF1:1,2014-05-02T01:45:00Z,27.8620,-80.4450,1.0,2.0,280.0,99.0,'11111222,11111222,11144222' 
FIT,ioos:station:wmo:SIPF1:1,2014-05-02T02:00:00Z,27.8620,-80.4450,1.0,1.0,270.0,99.0,'11111222,11111222,11144222' 
FIT,ioos:station:wmo:SIPF1:1,2014-05-02T02:15:00Z,27.8620,-80.4450,1.0,1.9,187.0,99.0,'11111222,11111222,11144222' 
FIT,ioos:station:wmo:SIPF1:1,2014-05-02T02:30:00Z,27.8620,-80.4450,1.0,2.7,142.0,99.0,'11111222,11111222,11144222' 
FIT,ioos:station:wmo:SIPF1:1,2014-05-02T02:45:00Z,27.8620,-80.4450,1.0,3.2,132.0,99.0,'11111222,11111222,11144222' 
FIT,ioos:station:wmo:SIPF1:1,2014-05-02T03:00:00Z,27.8620,-80.4450,1.0,2.1,127.0,99.0,'11111222,11111222,11144222' 
FIT,ioos:station:wmo:SIPF1:1,2014-05-02T03:15:00Z,27.8620,-80.4450,1.0,1.9,140.0,99.0,'11111222,11111222,11144222' 
FIT,ioos:station:wmo:SIPF1:1,2014-05-02T03:30:00Z,27.8620,-80.4450,1.0,2.3,150.0,99.0,'11111222,11111222,11144222' 
FIT,ioos:station:wmo:SIPF1:1,2014-05-02T03:45:00Z,27.8620,-80.4450,1.0,1.5,142.0,99.0,'11111222,11111222,11144222' 
FIT,ioos:station:wmo:SIPF1:1,2014-05-02T04:00:00Z,27.8620,-80.4450,1.0,1.7,153.0,99.0,'11111222,11111222,11144222' 
FIT,ioos:station:wmo:SIPF1:1,2014-05-02T04:15:00Z,27.8620,-80.4450,1.0,1.0,170.0,99.0,'11111222,11111222,11144222' 
FIT,ioos:station:wmo:SIPF1:1,2014-05-02T04:30:00Z,27.8620,-80.4450,1.0,2.2,158.0,99.0,'11111222,11111222,11144222' 
FIT,ioos:station:wmo:SIPF1:1,2014-05-02T04:45:00Z,27.8620,-80.4450,1.0,4.4,153.0,99.0,'11111222,11111222,11144222' 
FIT,ioos:station:wmo:SIPF1:1,2014-05-02T05:00:00Z,27.8620,-80.4450,1.0,3.6,154.0,99.0,'11111222,11111222,11144222' 
FIT,ioos:station:wmo:SIPF1:1,2014-05-02T05:15:00Z,27.8620,-80.4450,1.0,3.6,165.0,99.0,'11111222,11111222,11144222' 
FIT,ioos:station:wmo:SIPF1:1,2014-05-02T05:30:00Z,27.8620,-80.4450,1.0,3.2,172.0,99.0,'11111222,11111222,11144222' 
FIT,ioos:station:wmo:SIPF1:1,2014-05-02T05:45:00Z,27.8620,-80.4450,1.0,3.6,160.0,99.0,'11111222,11111222,11144222' 
FIT,ioos:station:wmo:SIPF1:1,2014-05-02T06:00:00Z,27.8620,-80.4450,1.0,4.2,163.0,99.0,'11111222,11111222,11144222' 
FIT,ioos:station:wmo:SIPF1:1,2014-05-02T06:15:00Z,27.8620,-80.4450,1.0,3.9,159.0,99.0,'11111222,11111222,11144222' 
FIT,ioos:station:wmo:SIPF1:1,2014-05-02T06:30:00Z,27.8620,-80.4450,1.0,4.3,156.0,99.0,'11111222,11111222,11144222' 
FIT,ioos:station:wmo:SIPF1:1,2014-05-02T06:45:00Z,27.8620,-80.4450,1.0,4.3,156.0,99.0,'11111222,11111222,11144222' 
FIT,ioos:station:wmo:SIPF1:1,2014-05-02T07:00:00Z,27.8620,-80.4450,1.0,4.2,158.0,99.0,'11111222,11111222,11144222' 
FIT,ioos:station:wmo:SIPF1:1,2014-05-02T07:15:00Z,27.8620,-80.4450,1.0,4.5,164.0,99.0,'11111222,11111222,11144222' 
FIT,ioos:station:wmo:SIPF1:1,2014-05-02T07:30:00Z,27.8620,-80.4450,1.0,4.1,166.0,99.0,'11111222,11111222,11144222' 
FIT,ioos:station:wmo:SIPF1:1,2014-05-02T07:45:00Z,27.8620,-80.4450,1.0,4.2,168.0,99.0,'11111222,11111222,11144222' 
FIT,ioos:station:wmo:SIPF1:1,2014-05-02T08:00:00Z,27.8620,-80.4450,1.0,4.4,167.0,99.0,'11111222,11111222,11144222' 
FIT,ioos:station:wmo:SIPF1:1,2014-05-02T08:15:00Z,27.8620,-80.4450,1.0,4.9,177.0,99.0,'11111222,11111222,11144222' 
FIT,ioos:station:wmo:SIPF1:1,2014-05-02T08:30:00Z,27.8620,-80.4450,1.0,5.3,177.0,99.0,'11111222,11111222,11144222' 
FIT,ioos:station:wmo:SIPF1:1,2014-05-02T08:45:00Z,27.8620,-80.4450,1.0,6.4,184.0,99.0,'11111222,11111222,11144222' 
FIT,ioos:station:wmo:SIPF1:1,2014-05-02T09:00:00Z,27.8620,-80.4450,1.0,5.8,183.0,99.0,'11111222,11111222,11144222' 
FIT,ioos:station:wmo:SIPF1:1,2014-05-02T09:15:00Z,27.8620,-80.4450,1.0,6.8,177.0,99.0,'11111222,11111222,11144222' 
FIT,ioos:station:wmo:SIPF1:1,2014-05-02T09:30:00Z,27.8620,-80.4450,1.0,6.8,178.0,99.0,'11111222,11111222,11144222' 
FIT,ioos:station:wmo:SIPF1:1,2014-05-02T09:45:00Z,27.8620,-80.4450,1.0,6.9,179.0,99.0,'11111222,11111222,11144222' 
FIT,ioos:station:wmo:SIPF1:1,2014-05-02T10:00:00Z,27.8620,-80.4450,1.0,6.9,181.0,99.0,'11111222,11111222,11144222' 
FIT,ioos:station:wmo:SIPF1:1,2014-05-02T10:15:00Z,27.8620,-80.4450,1.0,6.7,183.0,99.0,'11111222,11111222,11144222' 
FIT,ioos:station:wmo:SIPF1:1,2014-05-02T10:30:00Z,27.8620,-80.4450,1.0,6.2,183.0,99.0,'11111222,11111222,11144222' 
FIT,ioos:station:wmo:SIPF1:1,2014-05-02T10:45:00Z,27.8620,-80.4450,1.0,6.3,188.0,99.0,'11111222,11111222,11144222' 
FIT,ioos:station:wmo:SIPF1:1,2014-05-02T11:00:00Z,27.8620,-80.4450,1.0,6.0,185.0,99.0,'11111222,11111222,11144222' 
FIT,ioos:station:wmo:SIPF1:1,2014-05-02T11:15:00Z,27.8620,-80.4450,1.0,6.8,184.0,99.0,'11111222,11111222,11144222' 
FIT,ioos:station:wmo:SIPF1:1,2014-05-02T11:30:00Z,27.8620,-80.4450,1.0,5.9,187.0,99.0,'11111222,11111222,11144222' 
FIT,ioos:station:wmo:SIPF1:1,2014-05-02T11:45:00Z,27.8620,-80.4450,1.0,6.1,191.0,99.0,'11111222,11111222,11144222' 
FIT,ioos:station:wmo:SIPF1:1,2014-05-02T12:00:00Z,27.8620,-80.4450,1.0,6.0,190.0,99.0,'11111222,11111222,11144222' 
FIT,ioos:station:wmo:SIPF1:1,2014-05-02T12:15:00Z,27.8620,-80.4450,1.0,6.1,188.0,99.0,'11111222,11111222,11144222' 
FIT,ioos:station:wmo:SIPF1:1,2014-05-02T12:30:00Z,27.8620,-80.4450,1.0,5.9,190.0,99.0,'11111222,11111222,11144222' 
FIT,ioos:station:wmo:SIPF1:1,2014-05-02T12:45:00Z,27.8620,-80.4450,1.0,6.2,192.0,99.0,'11111222,11111222,11144222' 
FIT,ioos:station:wmo:SIPF1:1,2014-05-02T13:00:00Z,27.8620,-80.4450,1.0,6.1,192.0,99.0,'11111222,11111222,11144222' 
FIT,ioos:station:wmo:SIPF1:1,2014-05-02T13:15:00Z,27.8620,-80.4450,1.0,6.4,194.0,99.0,'11111222,11111222,11144222' 
FIT,ioos:station:wmo:SIPF1:1,2014-05-02T13:30:00Z,27.8620,-80.4450,1.0,6.4,191.0,99.0,'11111222,11111222,11144222' 
FIT,ioos:station:wmo:SIPF1:1,2014-05-02T13:45:00Z,27.8620,-80.4450,1.0,7.5,185.0,99.0,'11111222,11111222,11144222' 
FIT,ioos:station:wmo:SIPF1:1,2014-05-02T14:00:00Z,27.8620,-80.4450,1.0,7.5,190.0,99.0,'11111222,11111222,11144222' 
FIT,ioos:station:wmo:SIPF1:1,2014-05-02T14:15:00Z,27.8620,-80.4450,1.0,7.9,188.0,99.0,'11111222,11111222,11144222' 
FIT,ioos:station:wmo:SIPF1:1,2014-05-02T14:30:00Z,27.8620,-80.4450,1.0,6.8,193.0,99.0,'11111222,11111222,11144222' 
FIT,ioos:station:wmo:SIPF1:1,2014-05-02T14:45:00Z,27.8620,-80.4450,1.0,7.2,204.0,99.0,'11111222,11111222,11144222' 
FIT,ioos:station:wmo:SIPF1:1,2014-05-02T15:00:00Z,27.8620,-80.4450,1.0,7.6,194.0,99.0,'11111222,11111222,11144222' 
FIT,ioos:station:wmo:SIPF1:1,2014-05-02T15:15:00Z,27.8620,-80.4450,1.0,6.7,203.0,99.0,'11111222,11111222,11144222' 
FIT,ioos:station:wmo:SIPF1:1,2014-05-02T15:30:00Z,27.8620,-80.4450,1.0,6.7,203.0,99.0,'11111222,11111222,11144222' 
FIT,ioos:station:wmo:SIPF1:1,2014-05-02T15:45:00Z,27.8620,-80.4450,1.0,6.9,210.0,99.0,'11111222,11111222,11144222' 
FIT,ioos:station:wmo:SIPF1:1,2014-05-02T16:00:00Z,27.8620,-80.4450,1.0,5.7,205.0,99.0,'11111222,11111222,11144222' 
FIT,ioos:station:wmo:SIPF1:1,2014-05-02T16:15:00Z,27.8620,-80.4450,1.0,6.6,207.0,99.0,'11111222,11111222,11144222' 
FIT,ioos:station:wmo:SIPF1:1,2014-05-02T16:30:00Z,27.8620,-80.4450,1.0,6.3,209.0,99.0,'11111222,11111222,11144222' 
FIT,ioos:station:wmo:SIPF1:1,2014-05-02T16:45:00Z,27.8620,-80.4450,1.0,5.9,217.0,99.0,'11111222,11111222,11144222' 
FIT,ioos:station:wmo:SIPF1:1,2014-05-02T17:00:00Z,27.8620,-80.4450,1.0,6.6,210.0,99.0,'11111222,11111222,11144222' 
FIT,ioos:station:wmo:SIPF1:1,2014-05-02T17:15:00Z,27.8620,-80.4450,1.0,6.3,207.0,99.0,'11111222,11111222,11144222' 
FIT,ioos:station:wmo:SIPF1:1,2014-05-02T17:30:00Z,27.8620,-80.4450,1.0,6.7,210.0,99.0,'11111222,11111222,11144222' 
FIT,ioos:station:wmo:SIPF1:1,2014-05-02T17:45:00Z,27.8620,-80.4450,1.0,6.2,215.0,99.0,'11111222,11111222,11144222' 
FIT,ioos:station:wmo:SIPF1:1,2014-05-02T18:00:00Z,27.8620,-80.4450,1.0,5.7,209.0,99.0,'11111222,11111222,11144222' 
FIT,ioos:station:wmo:SIPF1:1,2014-05-02T18:15:00Z,27.8620,-80.4450,1.0,5.5,212.0,99.0,'11111222,11111222,11144222' 
FIT,ioos:station:wmo:SIPF1:1,2014-05-02T18:30:00Z,27.8620,-80.4450,1.0,6.3,215.0,99.0,'11111222,11111222,11144222' 
FIT,ioos:station:wmo:SIPF1:1,2014-05-02T18:45:00Z,27.8620,-80.4450,1.0,7.0,205.0,99.0,'11111222,11111222,11144222' 
FIT,ioos:station:wmo:SIPF1:1,2014-05-02T19:00:00Z,27.8620,-80.4450,1.0,6.2,218.0,99.0,'11111222,11111222,11144222' 
FIT,ioos:station:wmo:SIPF1:1,2014-05-02T19:15:00Z,27.8620,-80.4450,1.0,5.9,222.0,99.0,'11111222,11111222,11144222' 
FIT,ioos:station:wmo:SIPF1:1,2014-05-02T19:30:00Z,27.8620,-80.4450,1.0,5.9,211.0,99.0,'11111222,11111222,11144222' 
FIT,ioos:station:wmo:SIPF1:1,2014-05-02T19:45:00Z,27.8620,-80.4450,1.0,5.8,207.0,99.0,'11111222,11111222,11144222' 
FIT,ioos:station:wmo:SIPF1:1,2014-05-02T20:00:00Z,27.8620,-80.4450,1.0,5.5,222.0,99.0,'11111222,11111222,11144222' 
FIT,ioos:station:wmo:SIPF1:1,2014-05-02T20:15:00Z,27.8620,-80.4450,1.0,10.7,329.0,99.0,'11111222,11111222,11144222' 
FIT,ioos:station:wmo:SIPF1:1,2014-05-02T20:30:00Z,27.8620,-80.4450,1.0,11.5,346.0,99.0,'11111222,11111222,11144222' 
FIT,ioos:station:wmo:SIPF1:1,2014-05-02T20:45:00Z,27.8620,-80.4450,1.0,11.3,345.0,99.0,'11111222,11111222,11144222' 
FIT,ioos:station:wmo:SIPF1:1,2014-05-02T21:00:00Z,27.8620,-80.4450,1.0,10.8,345.0,99.0,'11111222,11111222,11144222' 
FIT,ioos:station:wmo:SIPF1:1,2014-05-02T21:15:00Z,27.8620,-80.4450,1.0,9.4,354.0,99.0,'11111222,11111222,11144222' 
FIT,ioos:station:wmo:SIPF1:1,2014-05-02T21:30:00Z,27.8620,-80.4450,1.0,8.4,3.0,99.0,'11111222,11111222,11144222' 
FIT,ioos:station:wmo:SIPF1:1,2014-05-02T21:45:00Z,27.8620,-80.4450,1.0,7.6,359.0,99.0,'11111222,11111222,11144222' 
FIT,ioos:station:wmo:SIPF1:1,2014-05-02T22:00:00Z,27.8620,-80.4450,1.0,6.3,355.0,99.0,'11111222,11111222,11144222' 
FIT,ioos:station:wmo:SIPF1:1,2014-05-02T22:15:00Z,27.8620,-80.4450,1.0,5.3,348.0,99.0,'11111222,11111222,11144222' 
FIT,ioos:station:wmo:SIPF1:1,2014-05-02T22:30:00Z,27.8620,-80.4450,1.0,6.2,348.0,99.0,'11111222,11111222,11144222' 
FIT,ioos:station:wmo:SIPF1:1,2014-05-02T22:45:00Z,27.8620,-80.4450,1.0,7.9,353.0,99.0,'11111222,11111222,11144222' 
FIT,ioos:station:wmo:SIPF1:1,2014-05-02T23:00:00Z,27.8620,-80.4450,1.0,8.3,340.0,99.0,'11111222,11111222,11144222' 
FIT,ioos:station:wmo:SIPF1:1,2014-05-02T23:15:00Z,27.8620,-80.4450,1.0,7.5,342.0,99.0,'11111222,11111222,11144222' 
FIT,ioos:station:wmo:SIPF1:1,2014-05-02T23:30:00Z,27.8620,-80.4450,1.0,6.0,341.0,99.0,'11111222,11111222,11144222' 
FIT,ioos:station:wmo:SIPF1:1,2014-05-02T23:45:00Z,27.8620,-80.4450,1.0,4.4,333.0,99.0,'11111222,11111222,11144222' 
FIT,ioos:station:wmo:SIPF1:1,2014-05-03T00:00:00Z,27.8620,-80.4450,1.0,5.1,335.0,99.0,'11111222,11111222,11144222' 
FIT,ioos:station:wmo:SIPF1:1,2014-05-03T00:15:00Z,27.8620,-80.4450,1.0,4.8,333.0,99.0,'11111222,11111222,11144222' 
FIT,ioos:station:wmo:SIPF1:1,2014-05-03T00:30:00Z,27.8620,-80.4450,1.0,4.2,340.0,99.0,'11111222,11111222,11144222' 
FIT,ioos:station:wmo:SIPF1:1,2014-05-03T00:45:00Z,27.8620,-80.4450,1.0,3.9,353.0,99.0,'11111222,11111222,11144222' 
FIT,ioos:station:wmo:SIPF1:1,2014-05-03T01:00:00Z,27.8620,-80.4450,1.0,4.0,360.0,99.0,'11111222,11144222,11144222' 
FIT,ioos:station:wmo:SIPF1:1,2014-05-03T01:15:00Z,27.8620,-80.4450,1.0,4.0,352.0,99.0,'11111222,11111222,11144222' 
FIT,ioos:station:wmo:SIPF1:1,2014-05-03T01:30:00Z,27.8620,-80.4450,1.0,3.0,328.0,99.0,'11111222,11111222,11144222' 
FIT,ioos:station:wmo:SIPF1:1,2014-05-03T01:45:00Z,27.8620,-80.4450,1.0,2.7,334.0,99.0,'11111222,11111222,11144222' 
FIT,ioos:station:wmo:SIPF1:1,2014-05-03T02:00:00Z,27.8620,-80.4450,1.0,2.6,325.0,99.0,'11111222,11111222,11144222' 
FIT,ioos:station:wmo:SIPF1:1,2014-05-03T02:15:00Z,27.8620,-80.4450,1.0,2.4,319.0,99.0,'11111222,11111222,11144222' 
FIT,ioos:station:wmo:SIPF1:1,2014-05-03T02:30:00Z,27.8620,-80.4450,1.0,2.2,346.0,99.0,'11111222,11111222,11144222' 
FIT,ioos:station:wmo:SIPF1:1,2014-05-03T02:45:00Z,27.8620,-80.4450,1.0,2.7,17.0,99.0,'11111222,11111222,11144222' 
FIT,ioos:station:wmo:SIPF1:1,2014-05-03T03:00:00Z,27.8620,-80.4450,1.0,2.9,35.0,99.0,'11111222,11111222,11144222' 